Tracking 25693 objects as of 30-Jun-2022
HD Live streaming from Space Station
objects crossing your sky now

STARLINK-2500

Track STARLINK-2500 now!
10-day predictions
STARLINK-2500 is classified as:


NORAD ID: 48485
Int'l Code: 2021-040BK
Perigee: 553.1 km
Apogee: 555.6 km
Inclination: 53.1 °
Period: 95.6 minutes
Semi major axis: 6925 km
RCS: Unknown
Launch date: May 9, 2021
Source: United States (US)
Launch site: AIR FORCE EASTERN TEST RANGE (AFETR)
aabbcc
Your satellite tracking list
Your tracking list is empty




NASA's NSSDC Master Catalog

Two Line Element Set (TLE):
1 48485U 21040BK  22181.25981691 -.00000169  00000-0  75589-5 0  9997
2 48485  53.0538 134.9638 0001779  72.1424 287.9759 15.06393002 63109
Source of the keplerian elements: AFSPC